W7OWO-1 Weather Reports


Display with metric or nautical units.
time (UTC)temp
F
wind
direction
speed
MPH
gust
MPH
rain 1hr
in
rain 24hr
in
rain mn
in
humidity
%
barometer
mb
20260503190003 82 70 3.0 6.0 0.00 0.00 0.00 47 1010.3
20260503185403 82 58 3.0 7.0 0.00 0.00 0.00 48 1010.3
20260503184503 82 25 1.0 3.0 0.00 0.00 0.00 53 1010.4
20260503183603 81 41 3.0 5.0 0.00 0.00 0.00 52 1010.5
20260503182703 81 31 2.0 6.0 0.00 0.00 0.00 48 1010.5
20260503181803 80 32 2.0 4.0 0.00 0.00 0.00 54 1010.6
20260503180903 80 54 3.0 5.0 0.00 0.00 0.00 53 1010.6
20260503180003 79 81 2.0 5.0 0.00 0.00 0.00 53 1010.6
20260503175403 78 81 2.0 4.0 0.00 0.00 0.00 56 1010.7
20260503174503 78 321 1.0 2.0 0.00 0.00 0.00 57 1010.8
20260503173603 77 345 1.0 3.0 0.00 0.00 0.00 59 1010.8
20260503172703 76 133 1.0 2.0 0.00 0.00 0.00 58 1010.9
20260503171824 76 234 1.0 2.0 0.00 0.00 0.00 61 1011.0
20260503170903 75 318 1.0 3.0 0.00 0.00 0.00 67 1010.9
20260503150903 60 83 1.0 2.0 0.00 0.01 0.00 93 1011.6
20260503130903 50 259 0.0 1.0 0.00 0.09 0.00 100 1011.1
20260503080903 54 277 1.0 2.0 0.00 0.09 0.00 98 1012.2
20260503072703 55 237 1.0 3.0 0.00 0.09 0.00 97 1012.3
20260503071803 55 74 1.0 2.0 0.00 0.09 0.00 96 1012.1
20260503070903 55 240 0.0 1.0 0.00 0.09 0.00 96 1012.1
20260503054503 60 254 1.0 3.0 0.00 0.09 0.09 89 1012.2
20260503053603 61 273 1.0 2.0 0.00 0.09 0.09 88 1012.3
20260503052703 61 284 1.0 2.0 0.00 0.09 0.09 88 1012.2
20260503051803 61 252 2.0 5.0 0.00 0.09 0.09 88 1012.3
20260503050903 61 183 1.0 2.0 0.00 0.09 0.09 87 1012.3
20260503050024 62 178 0.0 2.0 0.00 0.09 0.09 86 1012.0
20260503045403 62 190 1.0 2.0 0.00 0.09 0.09 85 1011.8
20260503044504 63 233 2.0 4.0 0.00 0.09 0.09 84 1011.7
20260503043603 63 243 3.0 7.0 0.00 0.09 0.09 83 1011.8
20260503042703 63 269 3.0 7.0 0.00 0.09 0.09 83 1011.7
20260503041824 62 253 1.0 4.0 0.00 0.09 0.09 84 1011.7
20260503040903 62 279 1.0 6.0 0.00 0.09 0.09 85 1011.6
20260503040003 62 266 1.0 3.0 0.00 0.09 0.09 85 1011.8
20260503035403 62 230 0.0 2.0 0.00 0.09 0.09 85 1011.8
20260503034503 62 207 0.0 2.0 0.00 0.09 0.09 84 1011.6
20260503033603 63 197 0.0 1.0 0.00 0.09 0.09 85 1011.6
20260503032703 63 240 1.0 4.0 0.00 0.09 0.09 84 1011.5
20260503031803 63 236 1.0 2.0 0.00 0.09 0.09 84 1011.5
20260503030903 64 279 2.0 3.0 0.00 0.09 0.09 83 1011.5
20260503030004 64 214 1.0 2.0 0.00 0.09 0.09 82 1011.5
20260503025403 64 296 1.0 2.0 0.00 0.09 0.09 81 1011.6
20260503024503 65 262 1.0 2.0 0.00 0.09 0.09 81 1011.8
20260503023603 65 263 0.0 2.0 0.00 0.09 0.09 80 1011.9
20260503022703 66 263 1.0 3.0 0.00 0.09 0.09 78 1012.3
20260503021824 66 78 1.0 3.0 0.00 0.09 0.09 77 1012.4
20260503020903 66 136 2.0 4.0 0.00 0.09 0.09 77 1012.5
20260503020024 66 109 3.0 9.0 0.00 0.09 0.09 78 1012.6
20260503015403 66 112 3.0 7.0 0.00 0.09 0.09 76 1012.4
20260503014503 67 216 2.0 5.0 0.00 0.09 0.09 77 1012.0
20260503013603 67 187 2.0 5.0 0.00 0.09 0.09 75 1011.6
20260503012703 68 180 1.0 3.0 0.00 0.09 0.09 74 1011.6
20260503011803 68 218 2.0 5.0 0.00 0.09 0.09 75 1011.6
20260503010903 68 198 4.0 10.0 0.00 0.09 0.09 75 1011.5
20260503010003 68 191 3.0 7.0 0.00 0.09 0.09 77 1011.5
20260503005403 68 185 3.0 6.0 0.00 0.09 0.09 75 1011.5
20260503004503 68 127 1.0 4.0 0.00 0.09 0.09 76 1011.3
20260503003603 68 109 1.0 2.0 0.00 0.09 0.09 79 1011.3
20260503002724 68 101 1.0 2.0 0.00 0.09 0.09 76 1011.2
20260503001803 68 224 1.0 4.0 0.00 0.09 0.09 75 1011.1
20260503000903 68 228 2.0 5.0 0.00 0.09 0.09 75 1011.2
20260503000003 68 203 1.0 3.0 0.00 0.09 0.09 74 1011.3
20260502235403 68 181 2.0 4.0 0.00 0.09 0.09 73 1011.3
20260502234503 68 185 1.0 3.0 0.00 0.09 0.09 73 1011.4
20260502233603 69 154 1.0 3.0 0.00 0.09 0.09 71 1011.6
20260502232703 70 197 3.0 4.0 0.00 0.09 0.09 71 1011.7
20260502231803 70 261 1.0 3.0 0.00 0.09 0.09 67 1011.8
20260502230903 70 276 1.0 2.0 0.00 0.09 0.09 69 1012.0
20260502230003 70 269 1.0 2.0 0.00 0.09 0.09 69 1012.1
20260502225403 70 299 1.0 2.0 0.00 0.09 0.09 71 1012.1
20260502224503 70 314 1.0 2.0 0.00 0.09 0.09 68 1012.2
20260502223603 70 351 1.0 3.0 0.00 0.09 0.09 69 1012.3
20260502222703 70 278 2.0 4.0 0.00 0.09 0.09 69 1012.5
20260502221803 69 288 3.0 5.0 0.00 0.09 0.09 69 1012.6
20260502220903 68 60 3.0 5.0 0.00 0.09 0.09 77 1012.7
20260502220003 68 71 2.0 5.0 0.00 0.09 0.09 70 1012.9
20260502215403 68 170 2.0 4.0 0.00 0.09 0.09 72 1013.0
20260502214503 67 74 2.0 5.0 0.00 0.09 0.09 71 1013.1
20260502213603 66 76 1.0 2.0 0.00 0.09 0.09 76 1013.2
20260502212703 65 102 1.0 2.0 0.00 0.09 0.09 76 1013.3
20260502211803 65 159 1.0 3.0 0.00 0.09 0.09 76 1013.4
20260502210903 65 29 2.0 5.0 0.00 0.09 0.09 73 1013.5
20260502210003 65 115 2.0 3.0 0.00 0.09 0.09 75 1013.7
20260502205403 64 337 1.0 4.0 0.00 0.09 0.09 79 1013.7
20260502204503 64 276 2.0 6.0 0.00 0.09 0.09 77 1013.8
20260502203603 64 104 2.0 4.0 0.00 0.09 0.09 77 1014.0
20260502202703 64 13 2.0 4.0 0.00 0.09 0.09 81 1014.2
20260502201824 63 58 3.0 6.0 0.00 0.09 0.09 77 1014.4
20260502200903 62 224 1.0 6.0 0.00 0.09 0.09 79 1014.6
20260502200003 62 73 2.0 4.0 0.00 0.09 0.09 79 1014.7
20260502195403 62 32 2.0 4.0 0.00 0.09 0.09 79 1014.7
20260502194503 62 334 1.0 4.0 0.00 0.09 0.09 79 1014.9
20260502193624 61 243 3.0 6.0 0.00 0.09 0.09 79 1014.8
20260502192703 60 313 2.0 4.0 0.00 0.09 0.09 81 1015.1
20260502191803 59 17 2.0 5.0 0.00 0.09 0.09 90 1015.2
20260502190903 58 91 4.0 10.0 0.00 0.09 0.09 84 1015.6